Retour au catalogue

CZ-6A DEB

ActifSSO
NORAD 56239·DEBRIS·🇨🇳 China

Lancé Nov 11, 2022 depuis Taiyuan Satellite Launch Center

Loading…

Prochains Passages (prochaines 24 heures)

TLE

FraisSource: Space-Track

Époque: Sep 12, 2026, 12:06 UTC

1 56239U 22151ABF 26255.50483080  .00002306  00000-0  79271-3 0  9994
2 56239  98.6828 274.2511 0063581 217.4308 142.2440 14.35870176186787

Suivez CZ-6A DEB en temps réel avec AllMySat

Download on the App Store